Voltar ao catálogo

CZ-6A DEB

AtivoSSO
NORAD 56263·DEBRIS·🇨🇳 China

Lançado Nov 11, 2022 de Taiyuan Satellite Launch Center

Loading…

Próximas Passagens (próximas 24 horas)

TLE

AtualizadoSource: Space-Track

Época: Sep 14, 2026, 14:19 UTC

1 56263U 22151ACF 26257.59658982  .00001434  00000-0  32305-3 0  9995
2 56263  98.4903 301.3492 0116687 358.8477   1.2432 14.53921921184563

Acompanhe CZ-6A DEB em tempo real com AllMySat

Download on the App Store